Weather in Tupik-72 km

Russia / Smolensk Oblast     55°42′06″N   33°19′50″E
temp.,
°C
wind,
m/s
gust,
m/s
humid.,
%
clouds,
%
prec.,
mm/h
press.,
hPa
HPBL,
m
6 may, thu
thu600:00+8sse289690 0.1 1004210
03:00+8sse41491100 0.1 1002388
06:00+8sse51594100 0.0 1000436
09:00+10s71487100 0.1 998918
12:00+10s71690100 2.6 9961705
15:00+5wsw41093100 4.8 1001753
18:00+8sw4118375 0.3 10021237
21:00+5wsw5128828 0.8 1005805
7 may, fri
fri700:00+4ssw413920 0.0 1007572
03:00+2sw412925 0.0 1008453
06:00+2ssw412912 0.0 1009394
09:00+7ssw51169100 0.0 1009700
12:00+7ssw5118192 0.3 10101136
15:00+10sw5970100 1.2 10091303
18:00+10ssw3777100 0.6 1008899
21:00+8s51092100 1.4 10081101
8 may, sat
sat800:00+7sse51594100 4.6 10041354
03:00+8s51196100 5.0 10031043
06:00+8s3997100 0.6 1002569
09:00+8ssw4895100 2.9 1001615
12:00+10wsw4682100 1.6 1000940
15:00+10wsw6980100 3.4 10011377
18:00+3w61497100 0.9 1005901
21:00+4w61289100 0.9 10071052
9 may, sun
sun900:00+3w51090100 0.0 1010889
03:00+3w51088100 0.1 1012972
06:00+3wnw4109197 0.0 1016853
09:00+6wnw48680 0.0 1018793
12:00+10wnw57390 0.0 10201778
15:00+12wnw46385 0.0 10212096
18:00+12wnw344522 0.0 10222225
21:00+5wsw226993 0.0 102514
10 may, mon
mon1000:00+4sw22778 0.0 102630
03:00+3ssw247749 0.0 102759
06:00+4ssw27776 0.0 1028153
09:00+10ssw465543 0.0 1028545
12:00+12ssw3556100 0.0 1028850
15:00+15sw345070 0.0 10271161
18:00+15ssw23574 0.0 10271032
21:00+9s22835 0.0 102835